GFSSW_sfc_thetae_207.txt.gz
Theta_e
318 318 319 320 321 322 323 324 324 324 322 321 321 321 320 322 323 318 311 317 320 325 329 324 324 319 320 314 316 317 305 301 303 303 305 310 308 312 313 310 310 311 312 317 321
317 317 317 317 317 319 320 322 323 323 323 322 320 321 320 322 316 312 322 325 324 326 324 320 316 316 312 312 313 310 303 303 308 308 307 309 309 309 308 308 307 306 309 319 318
319 318 318 318 317 317 317 319 320 322 323 322 321 320 319 321 309 308 325 326 326 328 325 322 320 315 309 311 310 309 304 308 308 309 309 309 308 311 307 306 310 307 310 315 313
318 318 319 319 318 317 316 316 318 320 321 322 321 320 319 316 295 313 327 327 327 327 322 317 314 309 308 305 310 304 308 310 309 310 307 307 310 307 308 310 312 314 313 314 312
315 315 316 316 317 317 317 316 316 317 318 320 321 319 314 305 305 315 324 327 325 325 317 313 311 310 305 307 308 305 307 309 310 308 308 309 307 307 308 312 310 312 312 312 312
314 314 315 315 315 314 315 316 316 315 316 318 320 320 311 298 313 315 322 322 321 320 315 315 311 313 308 307 306 308 308 307 309 309 307 304 306 305 309 312 308 309 309 311 312
313 314 314 314 314 314 314 315 315 315 315 316 318 316 307 304 314 315 321 322 322 320 314 316 315 310 309 305 309 308 303 306 307 307 306 307 302 302 309 310 306 307 309 311 312
313 313 313 313 313 313 313 313 314 314 315 315 316 312 301 314 316 312 313 319 321 321 317 316 315 310 307 308 305 302 303 297 304 306 306 305 297 305 309 307 306 307 308 309 310
312 312 311 311 311 311 311 312 312 313 314 315 309 306 298 316 308 312 312 311 315 317 314 311 311 306 305 300 297 299 293 295 299 306 304 302 298 305 308 308 306 307 308 308 309
311 310 310 310 310 310 310 310 310 311 310 310 308 299 303 302 308 310 313 312 311 309 305 303 302 298 299 296 289 292 293 296 295 301 303 300 299 303 301 305 306 307 308 308 307
310 310 309 309 309 309 308 304 298 297 302 296 297 297 301 307 309 307 310 309 307 304 295 299 293 289 294 297 297 296 296 294 298 301 298 299 299 301 304 300 302 305 307 307 307
309 309 309 308 308 308 306 298 297 299 289 297 300 300 302 306 299 303 310 301 299 294 297 294 291 296 299 298 296 296 293 294 298 298 296 297 296 301 303 304 300 302 305 307 307
309 308 308 308 307 305 301 299 305 303 289 292 297 297 299 303 298 299 305 301 296 293 294 291 293 298 296 296 294 294 293 292 292 292 293 292 290 293 299 302 305 303 303 306 307
308 308 308 307 302 302 298 303 305 300 282 286 291 295 298 299 294 304 305 300 295 291 293 293 297 294 294 293 295 290 297 294 292 290 287 292 285 295 297 296 299 303 304 302 305
307 307 307 306 301 297 300 303 304 297 271 288 291 301 298 294 294 296 304 299 293 293 293 290 292 291 290 293 296 292 297 294 293 292 291 291 286 292 296 295 296 299 303 305 303
307 307 306 304 303 302 304 304 300 280 271 284 291 290 291 293 293 295 298 301 299 292 294 292 296 295 293 294 296 297 294 293 293 290 283 289 288 289 292 294 297 299 301 304 303
306 306 305 305 297 305 304 297 280 274 285 283 284 289 289 288 290 291 291 290 288 284 284 289 288 292 295 290 294 293 290 282 280 281 281 288 288 291 297 295 298 298 300 303 304
306 306 305 303 305 304 299 286 274 281 281 287 287 288 285 288 288 288 288 286 291 290 287 283 281 288 292 290 287 289 289 284 277 278 283 285 283 290 297 299 297 298 299 302 303
306 302 300 303 305 304 290 276 278 282 286 285 286 283 284 287 287 287 287 287 289 292 285 284 283 292 291 292 291 288 285 291 284 285 284 285 288 293 293 291 292 295 295 298 302
300 298 297 304 305 298 285 280 282 287 286 286 280 284 281 284 284 285 285 289 289 293 294 288 282 288 288 290 291 289 292 283 285 279 278 285 286 288 289 291 292 292 293 297 301
299 291 299 305 303 290 280 282 284 289 288 285 283 282 284 283 285 284 285 289 291 291 294 291 286 283 286 284 285 285 284 287 288 286 282 281 286 292 292 292 292 293 294 296 299
296 286 299 303 286 286 283 284 287 286 289 287 287 285 283 284 284 284 284 288 294 293 288 291 287 280 282 289 289 289 288 288 283 282 285 284 286 291 291 291 293 295 295 295 298
290 287 298 298 280 282 286 285 287 286 286 286 285 287 289 285 282 286 286 292 293 292 289 290 284 279 280 283 285 283 287 289 288 288 285 282 286 291 290 290 293 293 293 294 296
290 283 290 291 288 283 283 283 283 289 287 288 287 288 286 285 288 285 286 289 293 293 295 293 285 283 278 283 287 281 284 287 287 283 284 286 288 290 290 290 291 292 293 293 294
291 285 287 283 285 285 284 283 281 282 288 289 286 286 285 280 284 284 288 289 292 293 293 289 282 285 286 287 285 285 283 284 282 286 284 287 288 292 292 292 292 293 293 292 292
288 287 288 285 285 284 285 283 282 284 285 284 284 286 287 283 284 284 286 287 286 290 287 287 283 286 283 286 286 282 285 285 284 285 287 288 288 295 293 294 292 292 291 291 291
294 294 289 285 284 283 284 284 283 285 287 288 287 287 285 287 290 292 293 292 291 288 286 285 284 283 279 285 283 278 283 285 285 286 288 284 290 295 291 291 292 292 291 291 292

GFSSW_sfc_thetae_210.txt.gz
Theta_e
319 318 318 318 318 318 318 319 321 322 323 324 323 321 322 320 321 317 310 316 319 326 326 323 324 324 322 315 315 316 303 299 301 301 302 307 305 308 309 305 307 305 305 315 320
318 320 320 320 319 318 318 318 318 320 321 322 323 322 321 321 314 310 320 326 328 325 319 318 316 318 312 311 310 307 301 302 307 306 304 306 305 306 304 304 302 302 313 318 318
316 317 317 317 318 319 320 318 317 317 319 320 322 322 321 319 307 307 329 328 327 325 318 321 319 315 308 310 308 307 301 306 307 308 308 307 305 308 303 302 304 301 312 314 313
317 316 316 316 316 316 316 316 318 318 317 317 319 321 321 313 293 313 325 326 326 322 319 317 314 309 305 304 308 302 307 307 309 310 307 305 308 304 304 304 309 308 314 313 311
313 313 314 315 315 315 315 315 315 316 317 316 317 319 315 304 303 313 323 326 322 321 318 315 309 309 303 305 306 304 305 308 309 308 307 308 305 305 304 306 307 310 313 311 309
314 315 314 314 314 314 314 314 315 315 315 316 316 317 308 298 313 313 313 321 319 319 317 316 310 312 307 305 304 306 306 306 307 306 306 304 303 305 305 307 306 309 310 309 309
313 314 313 312 313 312 313 313 313 313 314 315 316 311 303 302 314 313 313 318 320 319 314 316 314 308 308 303 307 306 301 303 305 305 305 305 299 300 306 307 304 304 306 308 308
313 312 312 311 311 311 311 312 312 312 312 314 315 309 296 309 314 313 313 316 320 320 318 318 315 309 306 307 304 301 300 294 302 305 304 302 293 302 306 304 302 302 303 306 308
312 311 311 310 310 310 310 310 311 311 311 312 307 303 295 310 306 311 312 306 315 317 317 316 311 305 304 298 294 296 289 293 296 304 303 300 294 302 306 305 302 301 302 305 306
311 310 310 310 309 309 309 310 309 309 307 307 306 296 299 297 304 310 311 309 306 310 308 303 302 297 297 295 285 289 290 292 293 298 301 298 296 300 301 303 303 302 302 304 305
309 310 309 309 309 309 307 302 295 293 299 294 295 295 296 302 306 305 309 306 304 304 296 299 294 289 293 296 296 295 292 291 294 300 298 297 297 299 301 297 297 302 301 302 304
308 309 308 309 308 308 305 296 295 298 289 296 296 294 297 301 295 302 308 300 299 294 297 293 290 295 297 298 296 294 291 290 295 298 295 294 294 299 301 299 297 299 301 302 304
308 308 308 308 308 304 300 298 304 300 289 290 293 294 294 298 294 295 303 300 296 293 293 289 292 297 295 294 292 292 290 291 291 292 290 288 287 291 297 301 300 300 301 303 304
307 308 308 308 301 301 297 303 304 301 281 284 290 292 294 296 291 301 302 299 295 290 292 292 296 294 293 292 294 288 295 294 292 285 279 287 277 287 291 294 299 298 298 301 303
308 307 307 307 300 296 300 304 304 298 268 287 289 300 296 291 294 295 302 298 291 291 292 288 292 291 290 292 296 292 297 293 292 287 285 285 279 284 289 290 294 298 298 299 302
307 307 307 303 302 302 304 304 299 279 268 283 290 289 289 291 291 295 296 299 299 292 292 291 296 295 292 295 296 296 293 292 290 287 280 285 284 283 286 289 293 297 300 300 299
307 307 304 304 296 304 304 296 278 271 284 281 284 288 287 287 288 290 289 288 287 283 283 289 288 294 295 290 293 293 288 281 279 278 275 285 283 286 289 290 291 296 298 301 300
308 307 305 301 304 304 299 284 270 279 280 286 286 286 283 287 287 288 287 285 290 289 284 281 279 287 292 290 287 289 287 278 273 271 276 283 278 285 294 294 292 293 296 300 301
307 301 299 302 304 303 290 275 275 280 284 282 283 281 282 286 286 286 285 285 289 290 283 281 281 289 291 293 291 288 284 287 280 281 276 279 283 287 289 287 288 290 291 296 300
298 297 297 303 305 297 284 278 281 286 286 285 278 283 279 282 283 284 284 288 287 292 292 286 281 288 289 290 289 288 291 282 279 271 273 278 280 282 285 286 288 288 289 289 296
298 290 298 304 302 290 278 280 283 288 288 284 282 281 281 281 283 283 284 288 290 290 292 288 284 282 285 283 283 281 283 283 283 279 273 274 278 284 285 287 287 287 289 290 294
295 284 298 301 286 285 281 284 288 286 289 287 287 285 282 284 282 282 283 287 292 292 287 289 285 278 279 287 288 287 284 285 277 275 276 276 279 286 286 287 289 289 290 290 294
289 287 297 297 279 281 285 284 286 285 285 285 284 287 287 284 279 284 286 291 292 291 287 289 281 276 278 280 283 279 284 282 280 281 278 275 279 286 285 285 290 289 289 290 293
289 281 289 288 286 282 281 281 281 288 286 287 286 287 285 283 286 283 285 289 291 292 294 293 283 277 273 275 280 275 279 282 281 277 277 280 283 284 285 286 288 288 288 288 291
290 284 287 280 283 283 284 283 281 282 287 288 285 285 284 276 279 282 287 288 291 292 291 286 277 280 282 284 283 280 276 279 278 282 279 282 284 287 286 286 287 288 288 289 290
287 285 289 285 285 283 284 281 281 282 283 283 282 285 286 281 284 282 284 286 285 288 286 286 280 284 278 284 284 281 282 282 282 282 283 284 284 291 285 288 288 288 288 288 289
294 294 288 285 284 282 282 282 282 285 286 288 286 285 284 287 290 291 291 291 289 286 285 284 280 276 272 282 281 278 282 282 283 284 284 280 286 291 286 288 288 288 288 288 288

GFSSW_sfc_thetae_216.txt.gz
Theta_e
317 316 317 318 317 317 318 318 318 318 319 319 318 319 321 322 321 313 305 312 316 325 323 317 318 318 322 318 314 311 299 294 297 299 302 305 301 303 303 302 300 301 309 315 324
314 314 315 315 315 316 316 316 317 316 317 317 318 318 318 320 314 307 316 322 324 326 318 313 310 314 313 314 313 305 299 299 304 305 302 304 302 303 300 300 304 306 314 322 323
313 315 316 317 316 316 315 315 315 315 315 315 316 317 317 316 305 304 321 325 326 325 319 317 317 314 311 310 309 303 298 305 306 307 306 304 301 303 300 296 304 308 314 320 319
316 315 314 314 315 314 313 313 313 314 314 314 315 316 317 309 289 306 323 324 328 321 317 313 312 309 307 305 309 301 306 306 308 309 306 302 304 300 301 301 307 315 316 319 317
315 314 314 314 314 313 313 312 313 313 313 313 314 314 309 300 299 311 322 317 315 319 314 310 307 308 304 304 307 304 303 306 308 308 307 306 302 301 300 302 313 315 315 314 317
314 314 313 313 313 312 312 312 312 312 312 311 312 313 302 293 305 310 309 308 309 315 312 311 307 311 307 303 304 306 306 305 306 305 305 303 302 301 302 306 310 312 313 312 311
312 312 312 311 310 311 311 311 311 311 311 311 311 306 299 294 306 307 307 304 307 314 311 313 311 309 308 303 307 305 300 303 303 303 302 304 298 298 302 307 308 309 310 310 308
312 311 311 310 310 310 310 310 310 310 311 311 311 303 292 304 305 304 305 303 304 306 315 316 314 310 306 307 303 299 299 294 301 302 302 301 292 300 303 303 305 307 307 308 307
311 310 310 309 309 309 309 310 310 310 311 310 303 299 289 304 300 303 304 300 300 306 312 316 312 305 304 298 295 297 289 292 296 302 301 300 293 301 304 300 302 305 306 307 307
310 309 309 309 309 308 309 309 309 307 303 303 302 293 295 292 300 301 303 303 299 300 305 306 303 298 298 296 287 289 288 291 292 297 300 296 295 298 302 299 297 301 305 306 305
309 309 309 309 308 308 305 300 292 291 294 290 291 292 295 299 302 296 301 298 300 299 294 300 293 291 294 297 296 294 290 289 293 298 296 296 296 298 300 298 295 297 302 303 304
309 308 308 308 308 307 301 293 294 296 288 293 293 293 295 296 290 293 301 294 291 288 294 294 290 295 298 298 296 293 291 288 291 295 293 292 294 299 301 297 296 295 297 302 303
308 309 308 308 307 300 295 295 300 298 287 287 291 291 292 294 289 289 296 295 290 288 290 288 292 299 296 295 293 293 290 288 289 290 288 290 288 293 297 298 297 297 298 300 303
309 309 309 307 297 296 293 300 300 297 277 280 286 292 292 294 287 295 297 293 289 286 289 288 294 294 293 292 295 289 295 292 291 287 283 287 280 285 294 293 298 297 296 298 301
308 308 308 307 296 293 297 300 299 293 263 282 288 299 296 289 290 290 298 292 286 288 289 285 288 291 290 292 295 290 296 292 291 286 283 281 279 281 285 291 294 297 297 298 300
308 308 307 299 297 297 302 299 292 271 260 279 287 285 285 289 289 292 293 296 291 287 291 288 293 294 293 295 296 296 292 291 290 287 279 281 279 279 282 285 288 294 299 299 300
307 307 304 302 293 299 298 287 269 262 279 279 281 284 284 284 286 285 285 286 282 280 282 287 286 289 295 290 293 293 288 280 279 278 275 282 279 283 287 289 290 291 293 300 299
307 306 301 301 299 298 289 274 261 272 277 284 283 283 282 284 285 285 283 281 286 284 281 280 279 286 291 290 287 288 287 278 273 271 275 282 278 283 291 294 292 291 292 298 297
305 294 294 297 301 295 280 263 266 276 282 280 282 279 280 284 284 283 281 283 287 286 280 281 280 288 289 290 291 287 284 287 278 277 275 277 279 286 289 289 289 290 291 293 295
292 289 291 297 298 288 273 271 275 283 284 283 277 279 276 280 280 281 282 286 287 288 288 285 277 286 289 291 290 289 289 281 280 271 272 274 276 280 283 286 286 286 288 293 294
290 282 292 295 292 279 267 268 279 285 286 281 278 279 279 279 281 280 283 287 289 289 289 286 279 280 286 283 282 285 284 282 282 279 274 273 276 282 283 285 285 287 287 291 293
286 274 290 293 276 272 269 280 286 283 286 285 284 283 281 281 279 281 282 286 291 291 286 288 278 278 279 285 285 285 284 281 275 272 271 275 277 283 283 284 285 287 286 288 292
279 280 290 288 271 278 279 281 283 283 283 283 282 284 285 281 276 282 284 290 292 289 286 289 280 275 277 281 283 282 284 280 279 279 276 275 278 285 284 285 285 286 284 288 291
279 273 279 279 285 281 277 277 279 285 284 285 283 285 282 280 282 277 282 289 291 291 294 291 280 278 274 275 275 273 276 282 281 276 276 277 279 284 285 285 286 286 286 287 290
279 275 281 271 275 276 278 277 279 279 284 286 282 283 282 272 275 275 284 286 288 290 289 285 274 278 281 281 281 279 275 275 276 279 277 280 281 283 286 284 284 285 286 288 289
277 278 278 280 281 273 279 274 279 280 281 280 282 283 283 277 282 280 284 283 284 285 285 285 278 281 279 282 282 279 280 280 278 280 279 281 282 288 285 286 285 285 287 288 288
289 286 285 279 274 272 272 277 277 280 282 286 284 284 280 284 287 288 289 288 287 285 283 280 281 276 272 280 280 275 280 279 279 280 281 278 285 287 284 286 286 286 287 288 288

GFSSW_sfc_thetae_219.txt.gz
Theta_e
315 315 315 317 317 317 317 317 316 316 316 316 317 318 319 318 318 313 307 312 314 323 322 316 317 318 321 315 316 309 297 293 296 299 301 305 300 301 301 302 300 302 310 316 327
314 316 315 315 315 317 316 315 315 315 315 315 315 316 317 318 308 305 316 323 324 324 316 311 310 314 312 312 314 307 298 297 303 304 302 304 300 301 300 301 302 304 314 323 325
314 316 316 315 315 315 314 314 313 313 313 313 314 314 315 314 301 299 317 322 327 324 317 316 314 311 308 310 310 307 299 303 305 307 305 303 300 302 299 297 304 306 315 321 322
315 315 315 315 314 314 314 313 313 312 313 313 313 313 314 307 287 302 324 323 321 318 315 313 312 305 305 304 310 302 306 305 307 309 307 302 303 299 300 301 306 315 319 320 320
315 314 313 313 312 312 311 312 312 312 312 312 312 312 306 297 296 307 317 313 309 314 312 311 308 307 302 305 308 303 304 307 308 308 307 307 303 300 301 303 313 318 319 318 318
314 312 312 312 311 310 310 310 310 310 310 311 311 311 300 289 303 306 305 305 306 309 312 312 307 310 307 304 304 307 306 305 307 306 306 303 302 300 300 309 313 316 317 317 317
312 312 311 311 310 310 310 310 310 310 310 311 311 305 297 293 303 304 303 301 304 302 299 312 312 308 308 303 308 306 302 304 304 304 304 304 299 297 300 309 310 312 314 316 316
311 311 310 309 309 309 309 309 310 310 310 311 311 303 292 302 302 301 301 299 302 303 303 304 312 307 305 306 303 299 300 293 301 302 303 302 293 299 301 306 305 308 308 310 310
310 310 310 309 309 309 309 309 310 310 311 310 303 299 290 302 297 301 300 297 300 302 303 305 309 302 303 298 294 296 289 292 294 302 301 300 294 300 300 306 305 304 306 307 306
310 309 309 309 309 309 308 308 308 306 302 302 302 292 294 291 298 301 303 301 297 298 296 301 301 297 296 293 286 289 288 290 292 296 300 296 294 299 300 301 303 304 305 306 305
309 309 309 309 309 308 304 296 292 291 292 287 289 291 292 297 301 297 299 297 298 297 289 297 291 288 291 295 295 295 291 289 294 298 297 296 297 298 299 298 296 301 304 304 306
309 309 309 309 309 308 298 292 294 295 286 292 292 292 294 295 288 292 299 290 290 287 292 290 287 292 295 296 295 294 292 289 292 297 296 295 295 298 300 296 298 299 302 304 304
309 309 309 308 308 298 294 294 299 296 286 286 290 290 291 293 288 288 293 290 286 287 288 286 290 295 294 294 292 292 291 290 290 290 291 290 288 293 299 298 296 297 300 303 303
309 309 309 309 296 295 292 298 299 295 275 279 284 291 292 293 287 293 294 293 289 285 287 286 291 291 291 291 294 289 293 293 291 289 283 288 280 288 294 294 296 296 295 299 302
308 308 308 307 295 292 296 299 298 290 259 280 284 297 291 288 289 291 296 291 285 287 286 283 287 287 289 290 294 291 297 293 292 287 284 280 280 284 286 292 294 297 295 297 301
308 307 307 299 295 297 299 297 289 268 258 278 285 284 284 288 289 292 291 294 291 286 286 284 291 291 290 295 296 296 294 292 290 287 280 281 281 281 282 289 293 296 298 298 298
307 307 303 302 292 298 296 285 268 262 279 278 279 283 283 283 285 286 285 285 282 278 278 284 286 290 293 290 294 293 287 280 278 279 278 281 279 285 287 287 292 296 297 299 299
307 303 298 300 298 296 286 274 261 272 275 282 282 282 280 284 284 285 283 281 286 284 280 278 275 285 292 290 287 285 286 280 275 274 274 281 278 283 290 292 291 290 291 293 298
303 293 293 295 298 292 279 264 266 275 281 280 281 278 277 283 283 283 281 282 286 286 279 280 279 287 290 291 291 286 283 286 279 278 276 277 279 285 287 288 289 290 289 291 295
292 288 290 295 295 285 273 271 274 280 283 282 276 278 276 278 277 279 281 286 286 288 288 282 279 286 287 290 290 288 290 282 280 272 271 273 275 280 283 285 286 286 286 290 293
288 281 290 293 290 279 267 268 278 284 285 280 277 279 278 278 280 279 282 286 289 288 289 286 282 281 286 280 283 285 283 282 283 277 273 271 276 282 282 284 285 285 285 287 291
284 273 289 289 276 268 268 279 285 282 285 283 283 281 280 280 277 278 280 284 291 290 286 288 281 280 280 283 284 283 284 281 276 272 270 273 276 284 282 283 284 284 285 285 290
278 279 288 286 269 269 278 280 282 282 282 283 281 283 284 281 276 280 282 289 291 288 287 288 280 275 277 280 284 280 283 280 278 279 277 275 277 284 283 284 285 284 285 287 290
278 272 277 278 278 275 277 276 278 284 283 284 283 285 281 279 282 279 282 287 290 290 294 290 279 278 272 272 276 274 273 282 280 275 275 278 279 282 283 284 285 285 286 287 289
278 273 280 274 273 273 277 278 278 278 283 284 281 281 280 277 276 278 283 284 287 290 289 285 277 278 280 281 280 279 275 275 278 279 278 279 281 284 283 283 284 285 287 288 288
275 275 278 273 279 280 275 270 277 279 279 278 278 280 282 280 281 278 281 282 282 286 285 285 278 280 278 281 280 279 282 281 281 280 280 281 281 287 283 284 285 285 287 288 288
285 284 285 276 270 271 274 278 276 276 279 283 282 281 280 283 283 284 285 286 287 285 283 281 278 275 271 279 279 275 280 280 279 279 282 279 283 284 283 286 286 286 287 288 288

GFSSW_sfc_thetae_222.txt.gz
Theta_e
315 316 318 316 315 315 315 316 315 314 314 314 315 315 315 316 316 309 303 310 315 323 323 313 315 316 319 315 317 311 299 295 295 296 299 303 300 300 302 301 301 305 309 314 327
314 316 316 315 316 316 315 315 315 314 313 313 313 313 314 315 307 302 312 319 321 324 313 309 307 313 311 312 312 307 300 297 300 301 301 304 301 299 300 300 301 303 312 324 325
315 316 315 313 314 313 313 312 312 313 312 312 313 313 313 310 298 297 320 319 320 320 315 313 311 310 307 310 309 307 300 302 303 305 305 303 301 302 298 297 302 305 316 322 323
315 315 314 313 313 312 311 311 311 311 311 312 312 312 312 303 285 300 320 319 317 311 315 312 310 304 303 302 309 303 307 305 305 307 306 302 304 300 299 300 302 310 319 319 320
314 313 313 313 312 311 310 310 310 311 311 311 311 310 305 294 293 305 314 310 307 307 310 308 306 303 298 303 306 304 305 307 307 307 306 307 303 300 301 303 313 317 319 318 319
312 312 312 312 311 310 309 310 310 310 310 311 311 310 299 288 300 303 302 301 302 302 302 308 306 307 303 301 302 306 305 305 307 306 307 303 302 300 300 310 313 316 317 318 320
312 310 311 311 310 309 310 310 310 310 310 311 310 306 297 293 301 303 302 299 300 299 296 302 305 305 304 301 306 306 300 303 304 306 305 306 299 297 301 310 312 314 316 317 318
310 311 310 310 310 309 309 310 309 310 310 311 311 303 293 301 301 300 300 298 300 303 300 302 303 301 302 305 302 300 299 293 301 304 305 304 295 299 304 308 309 312 313 315 316
311 310 309 309 310 310 310 309 309 309 309 308 300 297 288 301 297 300 299 296 297 299 300 303 303 302 302 296 293 296 289 290 294 302 301 300 294 302 301 306 306 308 309 313 312
309 309 310 310 310 309 309 307 307 304 301 302 301 291 291 290 296 299 301 300 296 296 295 295 297 296 295 292 284 287 288 290 292 296 298 298 295 299 300 303 305 306 306 308 308
310 310 309 309 309 309 302 295 291 287 291 286 287 290 291 294 297 295 298 296 296 292 284 291 288 286 291 292 292 293 290 288 293 297 296 295 296 298 298 301 301 304 305 306 306
309 309 309 309 309 307 296 293 293 294 286 291 291 291 293 293 288 290 297 290 288 282 287 287 284 290 294 293 293 291 290 290 292 297 296 294 295 299 298 298 299 302 304 306 305
309 309 308 308 307 297 293 293 298 296 286 285 289 289 290 292 287 287 291 289 284 283 284 283 286 291 291 290 289 290 289 290 290 294 291 291 289 294 299 297 299 300 305 306 305
308 308 307 308 296 294 291 297 298 295 275 278 282 289 291 291 286 293 293 289 286 281 282 285 290 289 288 288 290 285 294 294 292 290 285 290 281 289 296 294 295 297 297 303 305
307 307 307 306 294 291 295 298 297 290 258 279 283 294 289 285 288 289 295 292 283 284 285 280 285 287 287 288 292 289 294 292 290 290 286 282 284 283 291 291 295 298 296 301 304
307 307 307 298 294 295 298 294 287 267 258 277 284 283 283 286 287 291 291 293 291 286 287 283 287 290 289 291 293 294 293 292 291 285 281 283 285 281 283 292 294 297 298 298 302
307 306 301 300 291 297 293 284 268 262 278 277 279 282 281 281 284 286 285 284 279 276 277 282 281 286 292 287 290 292 286 280 278 278 278 281 283 286 287 288 294 296 298 298 300
306 302 297 299 295 294 285 274 261 271 274 281 280 281 279 283 282 283 283 279 284 284 278 277 269 283 290 287 287 288 287 280 275 276 277 281 281 284 289 291 291 293 298 299 299
303 292 292 293 296 290 278 265 266 275 280 279 280 277 277 282 282 282 282 281 285 285 278 278 277 285 289 291 291 285 283 286 279 278 276 280 280 285 286 287 290 290 288 292 296
290 287 289 293 292 284 273 270 273 279 282 281 276 278 275 277 277 279 280 286 285 288 288 282 277 284 286 292 291 289 289 281 281 274 274 274 275 280 282 285 286 287 288 288 291
286 281 289 291 288 279 268 268 277 283 284 280 277 278 277 276 278 278 280 284 287 288 288 285 281 282 286 285 284 286 284 284 282 279 275 273 276 282 281 283 283 285 285 285 288
282 274 287 288 276 267 268 278 284 281 284 283 283 280 280 279 277 278 280 283 290 289 285 287 280 278 281 282 284 287 284 284 280 277 275 276 275 283 281 283 284 284 284 285 287
277 278 287 285 269 268 277 279 281 281 281 282 281 283 283 279 274 279 281 288 289 288 286 287 280 275 277 280 284 282 283 281 281 280 276 274 276 283 282 283 285 285 286 288 288
277 273 277 276 282 274 278 276 277 283 281 282 283 283 279 278 280 277 280 286 287 288 293 290 282 278 270 271 276 273 277 282 281 274 276 276 278 281 281 283 285 285 286 286 289
277 272 280 274 271 275 279 276 277 276 280 282 280 280 279 273 275 275 280 281 285 289 288 285 277 279 278 278 280 278 275 278 278 278 277 279 279 281 282 283 283 285 287 288 287
275 275 280 279 277 269 275 268 276 277 278 276 277 278 280 278 280 275 277 278 280 285 285 284 279 280 277 280 280 280 281 282 281 280 280 280 280 284 282 284 284 285 288 287 287
283 283 284 274 272 272 268 271 274 274 278 280 279 277 278 281 282 282 284 284 283 281 283 281 277 273 271 278 278 274 279 281 281 280 281 278 282 284 282 285 286 285 287 287 288

GFSSW_sfc_thetae_228.txt.gz
Theta_e
317 316 317 316 315 315 315 314 313 312 312 312 312 312 313 314 314 308 301 307 310 319 321 313 316 314 316 315 316 313 301 297 301 303 305 309 307 308 309 309 312 319 318 324 332
316 316 314 314 314 314 313 312 311 311 311 311 312 312 312 312 305 301 309 320 320 319 312 310 307 311 309 310 312 307 300 301 307 308 307 309 308 308 306 306 308 313 319 329 330
314 313 314 313 313 313 313 311 311 311 311 312 312 311 312 310 298 298 315 317 315 315 312 311 309 308 304 308 308 307 300 307 306 310 311 308 307 309 307 305 308 309 318 324 328
312 312 312 313 312 311 311 311 311 311 312 312 311 311 311 305 286 301 316 314 312 307 305 305 305 301 299 299 308 302 307 307 309 310 309 306 309 306 306 308 313 314 322 325 326
312 314 313 313 312 311 311 312 312 312 312 312 311 310 306 296 295 306 312 307 304 302 300 300 301 301 296 301 304 303 305 306 310 309 309 311 308 309 307 310 312 313 322 325 326
311 311 311 312 312 312 311 311 312 311 311 310 310 311 301 289 304 306 304 302 302 299 297 297 301 304 301 300 300 305 306 306 308 308 309 307 308 308 310 313 313 314 319 325 325
313 314 312 311 311 311 311 311 311 310 310 310 310 307 298 295 305 306 305 303 303 300 296 298 298 298 304 299 304 305 300 304 304 306 305 308 303 306 312 315 314 315 318 322 324
310 310 310 311 311 311 311 310 309 309 309 307 308 303 293 305 307 304 304 302 304 303 300 300 300 297 299 305 303 299 300 293 302 304 305 306 298 307 313 313 313 315 318 319 323
310 310 310 310 310 309 309 308 308 307 306 305 302 300 291 304 298 302 304 299 301 302 302 302 302 295 299 295 293 296 289 293 297 305 303 302 297 306 311 312 312 314 316 317 319
309 309 309 309 309 309 308 307 306 303 302 303 302 293 296 292 298 299 303 302 298 298 297 296 294 291 292 290 283 289 290 292 293 299 302 299 299 304 308 310 311 313 314 316 317
308 309 308 308 308 308 304 300 294 292 295 290 291 290 292 297 300 297 299 298 298 295 288 292 287 284 289 294 294 294 292 291 295 300 300 299 298 302 306 308 308 312 313 314 315
308 309 308 308 308 305 302 294 294 295 287 293 293 293 295 296 291 294 298 291 290 286 289 287 283 289 292 294 292 293 291 292 296 300 299 298 298 302 304 306 308 308 312 313 314
309 308 308 308 307 302 298 296 302 300 287 288 291 290 292 294 289 290 295 292 288 286 285 283 286 291 289 288 287 291 291 292 292 297 299 296 293 297 303 306 307 307 310 314 313
308 308 307 307 299 300 295 300 302 301 281 282 285 291 293 292 287 295 296 292 288 285 286 285 288 285 287 286 288 284 294 293 293 292 286 296 285 294 299 302 303 306 307 312 315
307 307 307 304 300 296 297 301 300 296 271 283 286 295 292 287 289 291 298 292 286 285 285 283 284 284 283 287 289 287 295 293 293 291 289 288 287 292 298 297 301 305 307 310 314
307 307 306 302 302 300 300 297 294 280 270 280 286 285 286 287 288 291 291 294 292 286 287 286 291 289 287 290 291 292 291 291 292 289 283 288 286 288 294 297 301 304 308 311 311
307 306 302 303 294 299 298 291 280 274 282 279 281 284 284 283 285 287 286 284 283 279 279 284 285 289 291 286 292 290 288 281 279 280 280 289 286 290 297 301 302 304 306 309 312
306 302 300 301 298 299 294 287 273 276 278 284 283 283 281 284 283 284 284 282 286 283 280 278 277 285 289 288 286 288 287 281 275 277 281 287 284 290 298 301 303 306 307 307 308
302 299 300 299 297 296 290 279 276 278 282 280 282 279 280 283 282 282 283 282 286 285 279 279 279 287 289 291 291 287 284 290 284 284 283 286 290 294 296 298 297 303 306 306 308
297 294 295 295 296 293 287 278 278 282 283 282 277 280 277 280 279 280 280 285 284 286 287 284 279 286 288 291 292 289 292 283 284 278 277 282 284 288 292 293 294 297 302 306 308
293 289 294 295 294 290 280 278 281 285 285 281 280 279 280 279 279 279 281 284 286 284 285 286 283 283 286 285 284 285 284 287 287 285 279 279 285 291 289 292 295 296 299 303 305
292 286 294 294 287 281 281 281 284 283 285 284 284 282 280 279 278 279 280 283 288 285 281 286 284 280 282 287 290 290 286 288 283 280 283 282 284 289 289 290 290 292 295 297 302
288 288 294 294 280 280 282 281 282 281 281 282 280 283 283 278 276 281 282 287 287 284 283 285 283 278 279 284 288 286 287 288 287 287 282 281 283 289 290 290 290 290 292 293 293
288 283 287 288 284 280 278 278 277 283 282 282 281 283 279 277 281 279 280 284 285 286 289 288 284 280 278 281 286 283 285 288 287 285 282 282 283 286 288 289 290 291 293 295 295
287 281 282 279 281 278 279 278 277 276 281 282 280 279 277 273 276 278 281 281 284 286 285 284 280 282 282 283 287 286 285 285 284 287 283 283 283 286 288 290 291 293 293 293 294
286 284 284 281 280 276 276 276 276 278 278 277 277 278 279 275 277 275 279 278 279 283 282 284 280 282 280 284 286 283 286 286 285 285 286 285 284 289 290 291 292 293 293 292 293
289 289 285 280 277 277 278 278 277 280 280 281 280 278 277 280 281 281 282 282 281 279 280 281 282 280 278 282 284 280 282 285 282 281 285 284 286 290 289 289 291 293 294 293 293

GFSSW_sfc_thetae_231.txt.gz
Theta_e
316 314 314 315 314 315 315 314 313 312 312 312 312 312 312 313 313 306 301 309 315 320 316 311 313 313 316 315 318 315 302 299 302 303 306 310 309 313 313 309 312 316 319 327 335
315 314 313 313 314 313 312 313 312 312 312 312 312 313 312 312 305 302 310 318 319 321 309 309 306 309 308 310 311 307 299 299 307 308 306 309 310 311 307 308 308 311 319 332 332
313 313 315 314 315 314 313 311 312 313 313 313 313 312 311 311 298 299 317 312 315 311 311 309 309 307 302 307 306 307 299 304 307 308 310 309 309 312 308 304 308 308 314 328 329
313 313 313 312 312 312 313 313 312 312 313 313 312 312 311 304 288 303 318 317 312 306 305 304 304 301 298 298 306 300 306 305 307 310 309 306 311 309 310 310 312 313 315 325 325
313 314 315 314 313 313 312 312 312 312 312 311 311 310 306 295 296 307 312 309 304 302 299 298 300 300 295 300 303 301 303 306 308 309 309 311 308 308 308 313 312 315 318 323 326
314 312 311 312 312 312 312 312 312 311 310 310 310 310 301 291 306 306 305 303 302 300 298 298 298 302 300 299 299 303 303 305 307 306 309 306 308 309 311 313 312 312 319 323 325
311 311 310 311 311 311 311 311 311 310 309 310 309 306 298 296 305 307 305 303 304 302 296 299 299 296 301 298 302 302 298 302 304 306 305 308 302 305 312 314 313 310 316 322 326
311 310 310 309 310 310 310 310 309 309 308 308 307 303 294 304 307 305 305 302 305 305 302 301 301 296 295 303 300 296 297 293 301 304 305 304 293 305 312 313 312 313 314 320 325
309 309 310 309 309 309 309 308 308 307 306 306 302 300 292 304 299 302 303 300 301 303 303 302 299 295 296 295 292 294 288 292 296 303 304 301 296 304 310 311 311 314 315 318 323
309 309 309 310 309 309 307 308 307 305 303 303 302 294 297 294 299 300 302 301 298 298 297 295 294 290 290 290 283 288 289 291 292 299 302 299 297 302 307 310 309 313 316 317 318
310 309 309 309 308 308 305 300 294 293 296 291 292 292 294 299 301 298 301 298 298 295 288 293 287 284 287 290 294 293 291 290 294 298 299 299 298 299 303 307 308 310 314 315 317
309 309 309 308 308 306 303 294 294 296 287 295 293 294 297 298 292 295 299 292 291 286 289 287 284 289 291 292 290 292 291 290 294 297 298 298 297 301 301 304 308 309 314 313 316
308 308 308 307 307 303 299 297 302 300 287 290 292 291 293 296 290 291 296 293 289 286 287 284 287 290 289 289 288 290 290 291 291 295 299 296 294 298 302 302 305 309 313 315 315
308 308 307 307 302 301 297 301 303 302 282 284 287 292 294 294 289 296 297 293 289 286 287 286 289 287 286 286 288 285 294 293 292 291 288 296 284 294 299 300 303 305 309 314 314
308 307 307 305 301 297 298 302 301 297 273 285 287 296 294 290 291 292 299 294 286 287 287 284 285 285 284 286 290 287 293 292 292 289 291 291 287 291 297 295 299 305 308 311 315
307 307 305 303 303 300 301 301 297 282 272 281 287 286 287 289 290 292 292 295 293 287 288 287 291 289 287 288 290 292 289 288 292 290 283 289 288 288 293 297 299 304 307 310 312
307 305 303 303 295 301 302 294 283 276 284 280 282 286 285 285 286 287 286 286 283 279 280 285 286 289 290 286 289 289 284 280 279 280 281 290 287 290 297 300 301 303 306 309 312
305 302 301 301 300 301 298 289 275 279 280 285 284 285 282 285 284 285 285 284 288 285 281 279 277 285 289 287 285 287 285 280 276 278 281 289 285 290 298 302 304 306 308 310 311
304 302 301 299 300 299 292 280 277 280 283 281 283 280 281 284 283 283 283 283 286 285 278 279 279 289 289 290 289 285 283 288 283 286 283 286 290 296 298 299 301 304 307 309 311
298 297 296 300 299 297 288 280 280 284 284 283 278 281 278 280 280 281 282 286 283 287 286 282 278 287 288 290 291 288 291 281 284 278 277 283 285 288 294 296 299 301 305 308 312
298 292 297 300 299 293 282 281 282 285 285 282 280 279 280 279 279 279 281 285 287 285 285 285 284 283 287 284 284 285 285 287 287 285 279 280 284 293 295 298 298 300 305 308 309
295 289 297 300 288 287 282 282 285 284 286 284 284 282 280 280 278 279 280 284 288 286 280 285 281 281 283 289 290 290 287 288 281 281 283 282 283 292 291 293 297 299 303 308 309
291 290 297 296 281 282 283 281 282 282 282 282 280 283 283 278 275 281 282 287 288 284 282 285 281 279 280 284 288 285 288 289 289 288 282 280 284 292 292 291 293 295 299 302 305
293 285 291 290 286 281 279 280 279 284 282 282 281 284 280 277 280 278 280 284 285 286 288 287 283 281 276 281 286 283 286 288 288 283 284 285 285 288 290 290 292 293 295 296 298
292 284 285 281 283 281 280 280 278 277 282 283 280 280 278 274 276 278 280 281 284 286 285 284 279 283 284 284 286 285 284 285 284 288 285 285 284 286 289 291 293 295 295 296 295
288 286 288 285 283 281 279 279 278 279 279 278 278 279 279 276 278 275 278 278 278 283 280 285 280 282 281 284 286 283 286 286 286 286 287 285 284 290 293 295 294 294 295 294 295
293 292 288 283 282 281 280 279 278 280 281 282 280 279 277 280 281 282 283 283 283 280 279 280 281 279 278 284 285 280 284 285 282 284 285 283 286 290 289 288 289 292 295 294 294